Wetterdaten: aktuell Dienstag, 05.05.2026 02:51
Datum Zeit Temp. A. Feuchte A. Luftdruck Regen Wind Richtung Richtung Taupunkt Windchill
05.05.2026 02:51 15,5 °C 73 % 1004,2 hPa 0,0 l/m² 0,0 km/h (0 Bft) N 360 ° 10,7 °C 15,5 °C
05.05.2026 02:49 15,5 °C 73 % 1004,2 hPa 0,0 l/m² 0,2 km/h (0 Bft) N 360 ° 10,7 °C 15,5 °C
05.05.2026 02:47 15,5 °C 73 % 1004,2 hPa 0,0 l/m² 0,2 km/h (0 Bft) N 360 ° 10,7 °C 15,5 °C
05.05.2026 02:45 15,5 °C 73 % 1004,2 hPa 0,0 l/m² 0,0 km/h (0 Bft) N 360 ° 10,7 °C 15,5 °C
05.05.2026 02:43 15,6 °C 73 % 1004,2 hPa 0,0 l/m² 0,1 km/h (0 Bft) N 360 ° 10,8 °C 15,6 °C
05.05.2026 02:41 15,6 °C 73 % 1004,2 hPa 0,0 l/m² 0,1 km/h (0 Bft) N 360 ° 10,8 °C 15,6 °C
05.05.2026 02:39 15,6 °C 73 % 1004,2 hPa 0,0 l/m² 0,4 km/h (0 Bft) N 360 ° 10,8 °C 15,6 °C
05.05.2026 02:37 15,5 °C 73 % 1004,2 hPa 0,0 l/m² 0,0 km/h (0 Bft) N 360 ° 10,7 °C 15,5 °C
05.05.2026 02:35 15,6 °C 73 % 1004,2 hPa 0,0 l/m² 0,3 km/h (0 Bft) N 360 ° 10,8 °C 15,6 °C
05.05.2026 02:33 15,6 °C 73 % 1004,2 hPa 0,0 l/m² 0,3 km/h (0 Bft) N 360 ° 10,8 °C 15,6 °C
05.05.2026 02:31 15,6 °C 73 % 1004,2 hPa 0,0 l/m² 0,5 km/h (0 Bft) N 360 ° 10,8 °C 15,6 °C
05.05.2026 02:29 15,6 °C 73 % 1004,2 hPa 0,0 l/m² 0,0 km/h (0 Bft) N 360 ° 10,8 °C 15,6 °C
05.05.2026 02:27 15,6 °C 73 % 1004,2 hPa 0,0 l/m² 0,3 km/h (0 Bft) N 360 ° 10,8 °C 15,6 °C
05.05.2026 02:25 15,7 °C 72 % 1004,1 hPa 0,0 l/m² 0,3 km/h (0 Bft) N 360 ° 10,7 °C 15,7 °C
05.05.2026 02:23 15,7 °C 72 % 1004,1 hPa 0,0 l/m² 0,6 km/h (0 Bft) N 360 ° 10,7 °C 15,7 °C
05.05.2026 02:21 15,7 °C 72 % 1004,1 hPa 0,0 l/m² 0,0 km/h (0 Bft) N 360 ° 10,7 °C 15,7 °C
05.05.2026 02:18 15,7 °C 72 % 1004,1 hPa 0,0 l/m² 0,0 km/h (0 Bft) N 360 ° 10,7 °C 15,7 °C
05.05.2026 02:16 15,6 °C 72 % 1004,2 hPa 0,0 l/m² 0,0 km/h (0 Bft) N 360 ° 10,6 °C 15,6 °C
05.05.2026 02:15 15,6 °C 72 % 1004,2 hPa 0,0 l/m² 0,7 km/h (0 Bft) N 360 ° 10,6 °C 15,6 °C
05.05.2026 02:13 15,5 °C 72 % 1004,2 hPa 0,0 l/m² 0,1 km/h (0 Bft) N 360 ° 10,5 °C 15,5 °C
05.05.2026 02:11 15,6 °C 72 % 1004,2 hPa 0,0 l/m² 0,1 km/h (0 Bft) N 360 ° 10,6 °C 15,6 °C
05.05.2026 02:09 15,6 °C 72 % 1004,2 hPa 0,0 l/m² 0,1 km/h (0 Bft) N 360 ° 10,6 °C 15,6 °C
05.05.2026 02:07 15,7 °C 72 % 1004,1 hPa 0,0 l/m² 0,0 km/h (0 Bft) N 360 ° 10,7 °C 15,7 °C
05.05.2026 02:05 15,7 °C 72 % 1004,1 hPa 0,0 l/m² 0,0 km/h (0 Bft) N 360 ° 10,7 °C 15,7 °C
05.05.2026 02:03 15,7 °C 72 % 1004,1 hPa 0,0 l/m² 1,8 km/h (1 Bft) N 360 ° 10,7 °C 15,7 °C
05.05.2026 02:01 15,7 °C 71 % 1004,1 hPa 0,0 l/m² 0,2 km/h (0 Bft) N 360 ° 10,5 °C 15,7 °C
05.05.2026 01:59 15,8 °C 71 % 1004,1 hPa 0,0 l/m² 0,2 km/h (0 Bft) N 360 ° 10,6 °C 15,8 °C
05.05.2026 01:57 15,8 °C 71 % 1004,1 hPa 0,0 l/m² 0,2 km/h (0 Bft) N 360 ° 10,6 °C 15,8 °C
05.05.2026 01:55 15,7 °C 71 % 1004,1 hPa 0,0 l/m² 0,9 km/h (0 Bft) N 360 ° 10,5 °C 15,7 °C
05.05.2026 01:53 15,8 °C 71 % 1004,1 hPa 0,0 l/m² 0,5 km/h (0 Bft) N 360 ° 10,6 °C 15,8 °C
05.05.2026 01:51 15,8 °C 71 % 1004,1 hPa 0,0 l/m² 0,3 km/h (0 Bft) N 360 ° 10,6 °C 15,8 °C
05.05.2026 01:49 15,8 °C 70 % 1004,1 hPa 0,0 l/m² 0,3 km/h (0 Bft) N 360 ° 10,3 °C 15,8 °C
05.05.2026 01:47 15,9 °C 70 % 1004,1 hPa 0,0 l/m² 0,6 km/h (0 Bft) N 360 ° 10,4 °C 15,9 °C
05.05.2026 01:45 15,9 °C 70 % 1004,1 hPa 0,0 l/m² 0,6 km/h (0 Bft) N 360 ° 10,4 °C 15,9 °C
05.05.2026 01:43 15,9 °C 70 % 1004,1 hPa 0,0 l/m² 0,6 km/h (0 Bft) N 360 ° 10,4 °C 15,9 °C
05.05.2026 01:41 15,9 °C 71 % 1004,1 hPa 0,0 l/m² 0,3 km/h (0 Bft) N 360 ° 10,6 °C 15,9 °C
05.05.2026 01:39 15,9 °C 70 % 1004,1 hPa 0,0 l/m² 0,4 km/h (0 Bft) N 360 ° 10,4 °C 15,9 °C
05.05.2026 01:37 15,9 °C 70 % 1004,1 hPa 0,0 l/m² 0,3 km/h (0 Bft) N 360 ° 10,4 °C 15,9 °C
05.05.2026 01:34 15,9 °C 70 % 1004,1 hPa 0,0 l/m² 0,3 km/h (0 Bft) N 360 ° 10,4 °C 15,9 °C
05.05.2026 01:33 15,9 °C 71 % 1004,1 hPa 0,0 l/m² 0,6 km/h (0 Bft) N 360 ° 10,6 °C 15,9 °C
05.05.2026 01:31 15,9 °C 71 % 1004,1 hPa 0,0 l/m² 0,1 km/h (0 Bft) N 355 ° 10,6 °C 15,9 °C
_ Min-Zeit 02:13 00:01 01:31 - 00:05 - - 00:01 02:13
Minimum _ 15,5 °C 66 % 1004,1 hPa - 0,0 km/h (0 Bft) - - 10,2 °C 15,5 °C
_ Max-Zeit 00:01 02:27 01:19 00:01 00:19 - - 02:27 00:01
Maximum _ 16,6 °C 73 % 1005,2 hPa 0,0 l/m² 7,2 km/h
N (2 Bft)
- - 10,8 °C 16,6 °C
Durchschnitt _ 16,0 °C 70 % 1004,7 hPa #0,0 l/m² 1,1 km/h (1 Bft) N - 10,5 °C 16,0 °C